SKYNET 4E

Last updated on Wed Jul 09 2025 00:02:42 GMT+0000 (Coordinated Universal Time)

1 25639U 99009B 25189.27707152 -.00000027 00000+0 00000+0 0 9996 2 25639 11.8569 10.9839 0002517 106.5583 267.4441 1.00274375 47738
UTC large
Height (km)
Speed (km/s)
/
Latitude / Longitude
Inclination (degrees)
Orbital Period (minutes)
Azimuth
Elevation
Range (km)
Doppler Factor

Next 0 passes for location: London (51.5072 / 0.1276)

Sorry there are no passes over London.